Regional Weather Roundup
Issued by NWS Sterling, VA

Home | Current Version | Previous Version | Graphics & Text | Print | Product List | Glossary On
Versions: 1 2 3 4 5 6 7 8 9 10 11 12 13 14 15 16 17 18 19 20 21 22 23 24 25 26 27 28 29 30 31 32 33 34 35 36 37 38 39 40 41 42 43 44 45 46 47 48 49 50
000
ASUS41 KLWX 280610
RWRLWX

REGIONAL WEATHER ROUNDUP
NATIONAL WEATHER SERVICE BALTIMORE MD/WASHINGTON DC
100 AM EST SAT FEB 28 2015

Note: "FAIR" indicates few or no clouds below 12,000 feet
with no significant weather and/or obstructions to visibility.
 TC=TEMPERATURE CELSIUS

 * =Non NWS site. Station does not report precipitation (e.g. rain,
    snow, etc.), thunder, or fog.

DCZ001-MDZ009-015-VAZ040>042-051-053>054-280700-
WASHINGTON METRO

CITY           SKY/WX    TMP DP  RH WIND       PRES   REMARKS
WASHINGTON NAT PTCLDY    24   3  40 N9        30.71R WCI  14
DULLES         CLEAR     19   1  45 N10       30.68R WCI   7
ANDREWS AFB    CLEAR     20   3  47 N10       30.68R WCI   9
FT BELVOIR     CLEAR     22   0  37 VRB3      30.70R
QUANTICO       CLEAR     23   4  44 N7        30.72R
COLLEGE PARK*  CLEAR     23   3  42 NW3       30.70R
LEESBURG*      CLEAR     21   5  49 N7        30.68S
MANASSAS*      CLEAR     19   7  58 N3        30.69R
GAITHERSBURG*  CLEAR     16   0  48 CALM      30.70R

$$

MDZ006>007-011-014-280700-
BALTIMORE METRO

CITY           SKY/WX    TMP DP  RH WIND       PRES   REMARKS
BWI AIRPORT    PTCLDY    19   0  43 NW3       30.68R
MD SCIENCE CTR   N/A     21   0  39 MISG      30.61F
MARTIN STATE   CLEAR     21   3  45 NW8       30.70R WCI  12
ANNAPOLIS      CLEAR     22   4  46 NW8       30.69R WCI  12
FORT MEADE*    CLEAR     19   3  49 NW5       30.71R

$$

MDZ012-015-019>023-280700-
MARYLAND EASTERN SHORE

CITY           SKY/WX    TMP DP  RH WIND       PRES   REMARKS
OCEAN CITY     CLEAR     17  12  80 NW3       30.67R
SALISBURY      PTCLDY    18  13  80 S3        30.67R
BAY BRIDGE AP*   N/A     23   5  46 NW10      30.69R WCI  12
CAMBRIDGE*     CLEAR     27  10  50 N6        30.67R
EASTON*        CLEAR     24   8  51 N6        30.71R

$$

MDZ017>025-280700-
SOUTHERN MARYLAND

CITY           SKY/WX    TMP DP  RH WIND       PRES   REMARKS
PATUXENT RIVER CLEAR     24   1  36 N14       30.68R WCI  12
ST INIGOES     CLEAR     25   1  35 MISG      30.68R
LEONARDTOWN*   CLEAR     25   3  39 NW5       30.69R

$$

MDZ003>005-280700-
NORTH CENTRAL MARYLAND

CITY           SKY/WX    TMP DP  RH WIND       PRES   REMARKS
FREDERICK*     CLEAR     19  -4  35 CALM      30.71R
HAGERSTOWN APT CLEAR     17  -1  45 E3        30.65R
WESTMINSTER*   PTCLDY    16   0  48 NW5       30.63R

$$

MDZ501>502-280700-
WESTERN MARYLAND

CITY           SKY/WX    TMP DP  RH WIND       PRES   REMARKS
OAKLAND*       PTCLDY     3  -8  60 CALM      30.45R
CUMBERLAND*    PTCLDY    18   0  45 N3        30.70S

$$

VAZ025>031-280700-
SHENANDOAH VALLEY

CITY           SKY/WX    TMP DP  RH WIND       PRES   REMARKS
WINCHESTER*    CLEAR     19  -4  35 NW5       30.65S
FRONT ROYAL*   FAIR      18   1  49 N6        30.64S
LURAY*         FAIR      21   9  58 N5        30.62R
NEW MARKET*    FAIR      10   3  73 CALM      30.62S
STAUNTON*      CLEAR     16   3  56 N3        30.61R
WAYNESBORO*    FAIR      16   3  57 CALM      30.57S

$$

WVZ021-048>050-054>055-280700-
EASTERN WEST VIRGINIA PANHANDLE

CITY           SKY/WX    TMP DP  RH WIND       PRES   REMARKS
MARTINSBURG    CLEAR     18   0  45 N6        30.67R
PETERSBURG*    NOT AVBL

$$

VAZ036>039-050-280700-
CENTRAL FOOTHILLS

CITY           SKY/WX    TMP DP  RH WIND       PRES   REMARKS
CHARLOTTESVILL CLEAR     22   6  50 E3        30.63R
CULPEPER*      CLEAR     19   3  49 NE3       30.67R
ORANGE*        CLEAR     23   9  54 N7        30.67R
GORDONSVILLE*  FAIR      20   6  52 NE3       30.65R
WARRENTON*     FAIR      20   9  63 N6        30.67S

$$

VAZ055>057-280700-
NORTH AND CENTRAL PIEDMONT

CITY           SKY/WX    TMP DP  RH WIND       PRES   REMARKS
FREDERICKSBRG* CLEAR     25   6  44 N6        30.70R
STAFFORD*      CLEAR     22   0  38 N7        30.73R

$$

NCZ024-NYZ072-PAZ021-071-VAZ022-071-280700-
OTHER REGIONAL OBSERVATIONS

CITY           SKY/WX    TMP DP  RH WIND       PRES   REMARKS
NEW YORK CITY  CLEAR     19  -3  38 MISG      30.66R
PHILADELPHIA   CLEAR     22   5  48 NW8       30.67R WCI  12
PITTSBURGH     MOCLDY     5  -2  72 CALM      30.63S
ROANOKE        CLEAR     21   4  47 W5        30.60S
RICHMOND       MOCLDY    26  13  57 NE8       30.65R WCI  18
RALEIGH        CLEAR     29  18  63 NE6       30.59R

$$

ANZ530>537-280700-
MARINE OBSERVATIONS

STATION/POSITION TIME  TEMP    WIND        PRES
                       AIR SEA DIR/SP/G
                 (UTC) (F)     (DEG/KT/KT) (MB)
THOMAS PT LIGHT  0600   23 31  320/ 10/ 12 1040.3R
BALT KEY BRIDGE  0500   23     310/ 12/ 16 1038.6R
COVE POINT       0500   25     360/ 18/ 23 1037.8R
LEWISETTA        0500   27 32              1038.0R
SOLOMONS ISLAND  0506      33                N/A

$$



USA.gov is the U.S. government's official web portal to all federal, state and local government web resources and services.